DECAYED

NOAA 17 DEB, 48170 (Decayed)

Orbit data source: Space-Track

NOAA 17 DEB, 48170 was space debris in SSO originally from a launch on Mon, 24 Jun 2002 UTC launched from the Air Force Western Test Range (AFWTR). Debris objects in space refer to the collection of defunct objects orbiting the Earth. Examples of debris include non-operational satellites, rocket bodies, and fragments generated from explosions, collisions, or faulty payload assembly.

Not visible in the next 10 days
Identifier
48170, 2002-032L
Orbit
Decayed
Country
Flag of USUS
Related business
Manufacturer
Unknown
Mission
Decayed spacecraft
Bus & Motor
Unknown
Mass
Unknown
Launch date (UTC)
2002-06-24 (24 years ago)
Launch vehicle
Unknown
Launch site
Air Force Western Test Range (AFWTR)
Object type
Payload
Rocket body
Debris
Shape & HBR
Unknown shape, 0.1 m
Radar Cross Section
Medium (>0.1 m² and <1 m²)

Expand to show TLE details & history
Last TLE update: 5 months ago

TLE from 5 months ago
0 NOAA 17 DEB
1 48170U 02032L   26022.68090142  .00374948  00000-0  93254-2 0  9999
2 48170  98.7495 105.2162 0014629 312.1783  47.8215 15.38688314258805
Epoch: 2026-01-22T16:20Z
TLE epoch observation values (Epoch: 2026-01-22T16:20:29.882Z)
Latitude
-0.00004°
Longitude
98.06112°
Altitude
446.36 km
Speed
7.648 km/s
True Right ascension
07h 00m 51s
True Declination
0° 00' 00"
Sunlit
Object was in full shadow at epoch
Visualization orbit readout
Latitude
Unknown
Longitude
Unknown
Altitude
Unknown
Speed
Unknown
Apparent Right ascension
Unknown
Apparent Declination
Unknown
Sunlit
N/A
Visualization observer readout
Local Sidereal Time
21:37:55
Azimuth
Unknown
Elevation
Unknown
Doppler factor
Unknown
Orbital elements
Apogee altitude
456.976 km
Perigee altitude
437.007 km
Semi-major axis
6,825.128 km
Eccentricity
0.00146
Inclination
98.7495°
RAAN
105.2162°
Arg. of periapsis
312.1783°
True anomaly
47.94588°
Mean anomaly
47.8215°
Eccentric anomaly
47.88367°
Mean motion
3.84926 °/min
Orbital period
93.52 mins
BSTAR
0.0093254
Loading maneuver chart data...
Computing Atmospheric mass density...

Documentation

Showing up to 5 results
|